Regional Weather Roundup
Issued by NWS Charleston, SC

Home | Current Version | Previous Version | Text Only | Print | Product List | Glossary On
Versions: 1 2 3 4 5 6 7 8 9 10 11 12 13 14 15 16 17 18 19 20 21 22 23 24 25 26 27 28 29 30 31 32 33 34 35 36 37 38 39 40 41 42 43 44 45 46 47 48 49 50
000
ASUS42 KCHS 282010
RWRCHS
REGIONAL WEATHER ROUNDUP
NATIONAL WEATHER SERVICE CHARLESTON SC
300 PM EST SUN DEC 28 2014

NOTE: "FAIR" INDICATES FEW OR NO CLOUDS BELOW 12,000 FEET WITH NO
SIGNIFICANT WEATHER AND/OR OBSTRUCTIONS TO VISIBILITY.

NOT ALL STATIONS ARE QUALITY CONTROLLED BY THE NATIONAL
WEATHER SERVICE. USE DATA WITH CAUTION...ESPECIALLY
DEWPOINT OBSERVATIONS.

SCZ027-030-031-034>040-042>050-282100-
...SOUTHEAST SOUTH CAROLINA...

CITY           SKY/WX    TMP DP  RH WIND       PRES   REMARKS
N CHARLESTON   PTSUNNY   77  63  61 SW8G20    30.03F
WATERFRONT PRK   N/A     66 N/A N/A S10         N/A
MOUNT PLEASANT FAIR      75  66  73 S9        30.03
PINOPOLIS        N/A     75  64  69 SW7       29.94F
MONCKS CORNER  CLOUDY    75  64  69 SW9       30.02
SUMMERVILLE    CLOUDY    73  64  73 S6        30.03
BEAUFORT MCAS  MOSUNNY   73  64  73 VRB3      30.03F
BEAUFORT ARPT  FAIR      72  66  83 S6        30.03
HILTON HEAD IS SUNNY     72  66  83 S7        30.05F
WALTERBORO     PTCLDY    77  59  53 SW12G17   30.03
ALLENDALE      CLOUDY    75  64  69 CALM      30.01

...SOUTHERN MIDLANDS AND PEE DEE...

CITY           SKY/WX    TMP DP  RH WIND       PRES   REMARKS
GEORGETOWN     NOT AVBL
KINGSTREE      NOT AVBL
ORANGEBURG     CLOUDY    69  60  73 SW6       30.03S
BARNWELL       CLOUDY    72  63  73 W6        30.03F
AIKEN          CLOUDY    63  63 100 SW6       30.06  FOG
MANNING        CLOUDY    72  55  56 SW7       30.03
COLUMBIA       CLOUDY    65  64  97 SW7       30.02S
SUMTER         CLOUDY    67  62  84 SW10      30.01S
FLORENCE       CLOUDY    71  61  70 SW10      30.01R
MYRTLE BEACH   MOSUNNY   72  61  68 S12       30.04S
N MYRTLE BEACH SUNNY     67  59  75 SW12      30.02F

$$

GAZ063-065-086>088-099>101-113>116-118-119-134>141-150-282100-
...SOUTHEAST GEORGIA...

CITY           SKY/WX    TMP DP  RH WIND       PRES   REMARKS
SAVANNAH ARPT  PTSUNNY   78  62  57 W13       30.04S
HUNTER AAF     MOSUNNY   79  65  62 W15       30.02S
FORT STEWART   MOSUNNY   78  64  60 SW9       30.02F
STATESBORO     PTSUNNY   76  63  63 W7        30.04S
SYLVANIA       MOCLDY    75  65  69 W9        30.04S
CLAXTON        MOCLDY    77  64  65 W8        30.04S

...CSRA...CENTRAL AND FAR SOUTHEAST GEORGIA...

CITY           SKY/WX    TMP DP  RH WIND       PRES   REMARKS
THOMSON        CLOUDY    65  64  99 SW5       30.08S
AUGUSTA-BUSH   CLOUDY    69  61  75 W5        30.02F
AUGUSTA-DANIEL CLOUDY    65  62  90 VRB7      30.04S
SWAINSBORO     CLOUDY    75  68  78 W10       30.04F
VIDALIA        CLOUDY    77  64  65 SW8       30.04F
EASTMAN        CLOUDY    74  66  75 W6        30.07S
HAZLEHURST     CLOUDY    78  66  65 W7        30.04S
ALMA           PTSUNNY   79  62  56 SW12      30.04S
WAYCROSS       PTSUNNY   82  67  60 SW12      30.05S
JESUP          MOCLDY    82  68  61 W8        30.04F
BAXLEY         FAIR      79  64  61 W6        30.04S
BRUNSWICK      SUNNY     81  63  54 SW13G18   30.05F
SAINT SIMONS   SUNNY     72  63  73 S8        30.05F

$$

SCZ027-028-034-036>038-045-046-048>050-GAZ119-141-282100-
...LAKE AND SUPPLEMENTAL COASTAL OBSERVATIONS...

STATION/POSITION TIME  TEMP    WIND        PRES    WAVE   SWELL
                       AIR SEA DIR/SP/G            HT/PER HT/PER/DIR
                 (UTC) (F)     (DEG/KT/KT) (MB)    (FT/S) (FT/S/D)
UPR LAKE MARION  NOT AVBL
WINYAH BAY       1900   74     200/  9     1016.0S
LAKE MURRAY      1900   60     250/  3/  5 1016.3S
ACE BASIN NERRS  1900   70     170/  1     1018.0S
FORT PULASKI     2000   68 56  170/  4/  7 1017.6S
SAPELO ISLAND    1900   74     230/ 13     1017.0F

$$

ANZ835-935-AMZ111-154-330-350-352-354-370-450-454-472-282100-
...C-MAN AND BUOY OBSERVATIONS...

STATION/POSITION TIME  TEMP    WIND        PRES    WAVE   SWELL
                       AIR SEA DIR/SP/G            HT/PER HT/PER/DIR
                 (UTC) (F)     (DEG/KT/KT) (MB)    (FT/S) (FT/S/D)
BUOY 41004       2000   73 74  220/ 12/ 14 1016.9F   3/14   2/14
BUOY 41008       2000   62 60  200/ 10/ 10 1017.4F   2/15   2/110/15
FOLLY BEACH CMAN 1900   62     210/  6/  7 1018.0F
CAPERS NEARSHORE 1900   63     220/  6/  8   N/A
FRIPP NEARSHORE  NOT AVBL


STATION/POSITION TIME  TEMP    WIND        PRES    WAVE   SWELL
                       AIR SEA DIR/SP/G            HT/PER HT/PER/DIR
                 (UTC) (F)     (DEG/KT/KT) (MB)    (FT/S) (FT/S/D)
5E ST. MARYS GA  2000      62                N/A     3/15   2/ 80/15
FRYING PAN BUOY  2000   69 68  230/  8/ 10 1018.0F   3/14   3/110/14
BUOY 41025       2000   70                 1016.7R   4/ 4
CAPE LOOKOUT NC  1900   65     250/  7/  9 1016.9F
BUOY 41002       1900   74 75  220/ 17/ 21 1019.4    5/13   3/ 70/13
BUOY 41010       2000   77 77  220/ 10/ 12 1019.4R   5/15   5/ 90/15
ST AUGUSTINE FL  2000   66     170/  5/  5 1018.9F


$$


USA.gov is the U.S. government's official web portal to all federal, state and local government web resources and services.